TimeCST,TemperatureF,Dew PointF,Humidity,Sea Level PressureIn,VisibilityMPH,Wind Direction,Wind SpeedMPH,Gust SpeedMPH,PrecipitationIn,Events,Conditions,WindDirDegrees,DateUTC
12:15 AM,28.0,13.8,55,30.22,10.0,Calm,Calm,-,N/A,,Clear,0,2014-01-22 06:15:00
12:35 AM,29.1,12.2,49,30.21,10.0,ENE,3.5,-,N/A,,Clear,70,2014-01-22 06:35:00
12:55 AM,29.7,12.7,49,30.20,10.0,Calm,Calm,-,N/A,,Clear,0,2014-01-22 06:55:00
1:15 AM,30.6,10.4,43,30.19,10.0,Calm,Calm,-,N/A,,Clear,0,2014-01-22 07:15:00
1:35 AM,30.2,10.6,44,30.19,10.0,Calm,Calm,-,N/A,,Clear,0,2014-01-22 07:35:00
1:55 AM,29.3,11.1,47,30.19,10.0,Calm,Calm,-,N/A,,Clear,0,2014-01-22 07:55:00
2:15 AM,26.8,15.1,61,30.19,10.0,Calm,Calm,-,N/A,,Clear,0,2014-01-22 08:15:00
2:35 AM,26.8,15.8,63,30.19,10.0,Calm,Calm,-,N/A,,Clear,0,2014-01-22 08:35:00
2:55 AM,26.6,14.4,60,30.18,10.0,Calm,Calm,-,N/A,,Clear,0,2014-01-22 08:55:00
3:15 AM,27.0,13.8,58,30.17,10.0,Calm,Calm,-,N/A,,Clear,0,2014-01-22 09:15:00
3:55 AM,26.1,14.2,61,30.17,10.0,Calm,Calm,-,N/A,,Clear,0,2014-01-22 09:55:00
4:15 AM,25.5,15.1,65,30.16,10.0,Calm,Calm,-,N/A,,Clear,0,2014-01-22 10:15:00
4:35 AM,26.1,14.0,60,30.16,10.0,Calm,Calm,-,N/A,,Clear,0,2014-01-22 10:35:00
4:55 AM,25.0,15.3,67,30.16,10.0,Calm,Calm,-,N/A,,Clear,0,2014-01-22 10:55:00
5:15 AM,25.5,14.0,62,30.15,10.0,Calm,Calm,-,N/A,,Clear,0,2014-01-22 11:15:00
5:35 AM,26.4,13.1,57,30.15,10.0,Calm,Calm,-,N/A,,Clear,0,2014-01-22 11:35:00
5:55 AM,23.4,16.3,75,30.16,10.0,Calm,Calm,-,N/A,,Clear,0,2014-01-22 11:55:00
6:15 AM,26.6,12.9,56,30.15,10.0,Calm,Calm,-,N/A,,Clear,0,2014-01-22 12:15:00
6:35 AM,26.6,12.2,55,30.15,10.0,Calm,Calm,-,N/A,,Clear,0,2014-01-22 12:35:00
6:55 AM,23.2,15.4,72,30.17,10.0,Calm,Calm,-,N/A,,Clear,0,2014-01-22 12:55:00
7:15 AM,26.1,13.1,58,30.17,10.0,Calm,Calm,-,N/A,,Clear,0,2014-01-22 13:15:00
7:35 AM,27.0,12.4,54,30.18,10.0,Calm,Calm,-,N/A,,Clear,0,2014-01-22 13:35:00
7:55 AM,27.9,13.8,56,30.19,10.0,Calm,Calm,-,N/A,,Clear,0,2014-01-22 13:55:00
8:15 AM,28.9,16.7,60,30.19,10.0,Calm,Calm,-,N/A,,Clear,0,2014-01-22 14:15:00
8:35 AM,30.4,17.2,58,30.20,10.0,Calm,Calm,-,N/A,,Clear,0,2014-01-22 14:35:00
8:55 AM,32.0,18.0,56,30.20,10.0,NE,4.6,-,N/A,,Clear,40,2014-01-22 14:55:00
9:15 AM,34.0,19.0,54,30.20,10.0,ENE,4.6,-,N/A,,Clear,60,2014-01-22 15:15:00
9:35 AM,35.6,19.8,53,30.21,10.0,ENE,3.5,-,N/A,,Clear,70,2014-01-22 15:35:00
9:55 AM,37.8,19.0,47,30.21,10.0,East,3.5,-,N/A,,Clear,100,2014-01-22 15:55:00
10:15 AM,40.1,15.8,37,30.21,10.0,Calm,Calm,-,N/A,,Clear,0,2014-01-22 16:15:00
10:35 AM,42.3,14.9,33,30.21,10.0,ESE,4.6,-,N/A,,Clear,110,2014-01-22 16:35:00
10:55 AM,43.5,15.4,32,30.20,10.0,East,5.8,-,N/A,,Clear,90,2014-01-22 16:55:00
11:15 AM,45.9,15.4,30,30.19,10.0,East,4.6,-,N/A,,Clear,90,2014-01-22 17:15:00
11:35 AM,47.1,15.1,28,30.18,10.0,ENE,4.6,-,N/A,,Clear,60,2014-01-22 17:35:00
11:55 AM,48.9,15.4,26,30.17,7.0,Calm,Calm,-,N/A,,Clear,0,2014-01-22 17:55:00
12:15 PM,49.5,15.1,25,30.16,10.0,ESE,3.5,-,N/A,,Clear,110,2014-01-22 18:15:00
12:35 PM,49.5,15.3,26,30.15,10.0,Calm,Calm,-,N/A,,Clear,0,2014-01-22 18:35:00
12:55 PM,50.7,16.2,25,30.13,10.0,Calm,Calm,-,N/A,,Clear,0,2014-01-22 18:55:00
1:15 PM,50.5,16.5,26,30.13,10.0,Calm,Calm,-,N/A,,Clear,0,2014-01-22 19:15:00
1:35 PM,51.8,17.1,25,30.12,10.0,Calm,Calm,-,N/A,,Clear,0,2014-01-22 19:35:00
1:55 PM,53.2,17.1,24,30.11,10.0,Calm,Calm,-,N/A,,Clear,0,2014-01-22 19:55:00
2:15 PM,53.8,18.0,24,30.10,10.0,Calm,Calm,-,N/A,,Clear,0,2014-01-22 20:15:00
2:35 PM,53.8,18.1,25,30.10,10.0,Calm,Calm,-,N/A,,Clear,0,2014-01-22 20:35:00
2:55 PM,54.1,18.0,24,30.10,10.0,Calm,Calm,-,N/A,,Clear,0,2014-01-22 20:55:00
3:15 PM,54.5,18.5,24,30.09,10.0,Calm,Calm,-,N/A,,Clear,0,2014-01-22 21:15:00
3:35 PM,53.6,18.5,25,30.10,10.0,Calm,Calm,-,N/A,,Clear,0,2014-01-22 21:35:00
3:55 PM,53.1,18.7,26,30.09,10.0,Calm,Calm,-,N/A,,Clear,0,2014-01-22 21:55:00
4:15 PM,52.7,19.9,28,30.10,7.0,Calm,Calm,-,N/A,,Clear,0,2014-01-22 22:15:00
4:35 PM,52.3,20.5,29,30.10,10.0,Calm,Calm,-,N/A,,Clear,0,2014-01-22 22:35:00
4:55 PM,51.8,20.3,29,30.10,10.0,Calm,Calm,-,N/A,,Clear,0,2014-01-22 22:55:00
5:15 PM,51.1,21.0,31,30.11,10.0,Calm,Calm,-,N/A,,Clear,0,2014-01-22 23:15:00
5:35 PM,50.5,21.0,31,30.11,10.0,NNE,4.6,-,N/A,,Clear,20,2014-01-22 23:35:00
5:55 PM,49.5,21.4,33,30.12,10.0,Calm,Calm,-,N/A,,Clear,0,2014-01-22 23:55:00
6:15 PM,48.7,21.0,34,30.11,10.0,Calm,Calm,-,N/A,,Clear,0,2014-01-23 00:15:00
6:35 PM,48.4,20.8,34,30.12,10.0,Calm,Calm,-,N/A,,Clear,0,2014-01-23 00:35:00
6:55 PM,48.0,20.7,34,30.12,10.0,Calm,Calm,-,N/A,,Clear,0,2014-01-23 00:55:00
7:15 PM,47.5,20.3,34,30.13,10.0,Calm,Calm,-,N/A,,Clear,0,2014-01-23 01:15:00
7:35 PM,44.6,21.2,39,30.13,10.0,Calm,Calm,-,N/A,,Clear,0,2014-01-23 01:35:00
7:55 PM,44.8,22.1,41,30.14,10.0,Calm,Calm,-,N/A,,Clear,0,2014-01-23 01:55:00
8:15 PM,44.6,22.1,41,30.15,10.0,Calm,Calm,-,N/A,,Clear,0,2014-01-23 02:15:00
8:35 PM,44.6,22.1,41,30.16,10.0,Calm,Calm,-,N/A,,Clear,0,2014-01-23 02:35:00
8:55 PM,45.0,21.4,39,30.16,10.0,North,5.8,-,N/A,,Clear,350,2014-01-23 02:55:00
9:15 PM,45.5,20.3,37,30.17,10.0,North,6.9,-,N/A,,Clear,350,2014-01-23 03:15:00
9:35 PM,44.8,20.3,38,30.17,10.0,North,8.1,-,N/A,,Clear,360,2014-01-23 03:35:00
9:55 PM,44.1,21.4,41,30.18,10.0,North,9.2,-,N/A,,Clear,360,2014-01-23 03:55:00
10:15 PM,43.7,21.7,42,30.18,10.0,North,8.1,-,N/A,,Clear,10,2014-01-23 04:15:00
10:35 PM,43.7,21.7,42,30.19,10.0,North,6.9,-,N/A,,Clear,10,2014-01-23 04:35:00
10:55 PM,43.3,21.4,42,30.19,10.0,North,8.1,-,N/A,,Clear,360,2014-01-23 04:55:00
11:15 PM,43.2,21.4,42,30.20,10.0,North,8.1,-,N/A,,Clear,10,2014-01-23 05:15:00
11:35 PM,43.2,21.0,41,30.20,10.0,North,8.1,-,N/A,,Clear,10,2014-01-23 05:35:00
11:55 PM,42.8,21.0,42,30.21,10.0,North,8.1,-,N/A,,Clear,360,2014-01-23 05:55:00